Location: Grossmotten
(48.5500°N, 15.3833°E)
Time: 20:17:22
(UTC+00:00)

USA 234 - Pass Details

Date: 15 November 2019
Orbit: 1099 x 1108 km, 123.0° (Epoch: 30 November)

Event Time Altitude Azimuth Distance (km) Brightness Sun altitude
Rises 03:36:19 0° 80° (E) 3,917 7.5 -24.6°
Reaches altitude 10° 03:38:55 10° 74° (ENE) 2,960 6.5 -24.2°
Maximum altitude 03:44:59 43° 5° (N) 1,500 3.9 -23.2°
Enters shadow 03:47:40 30° 317° (NW) 1,879 4.1 -22.7°
